{"data":{"norad_id":59618,"intl_designator":"2024-080T","name":"STARLINK-31784","alt_names":[],"object_type":"PAYLOAD","status":"ACTIVE","operator":null,"country":"US","launch_date":"2024-04-28","launch_site_code":"AFETR","launch_vehicle":null,"mission":null,"orbit_class":"UNKNOWN","rcs_meters":null,"size_class":null,"mass_kg":null,"dimensions":null,"purposes":["comms"],"wikipedia_slug":null,"has_3d_model":false,"image_url":null,"decayed_at":null,"tle_current":{"epoch":"2026-09-21T17:57:37.054656Z","epoch_age_seconds":60262,"freshness":"FRESH","line1":"1 59618U 24080T   26264.74834554  .00000282  00000+0  19784-4 0  9997","line2":"2 59618  43.0034  14.4451 0000916 277.2071  82.8677 15.27577911134478","mean_motion":15.27577911,"eccentricity":9.16e-5,"inclination_deg":43.0034,"raan_deg":14.4451,"arg_perigee_deg":277.2071,"mean_anomaly_deg":82.8677,"bstar":1.9784e-5,"rev_number":13447,"period_min":94.266877625727,"perigee_km":482.42686604492,"apogee_km":483.68383648367,"semimajor_km":6861.1923512643,"source":"CELESTRAK","updated_at":"2026-09-22T09:00:49.013458Z"}}}